RYR5RK LIME-LKTB

Flight info

Callsign RYR5RK
Flight time 1h 14m
Altitude 32000
Route OSKOR DCT NESTI DCT TAGIP DCT DIBAX DCT SUMIR DCT ALESE DCT VESAL/N0417F310 DCT MALUG DCT LEDVA
Aircraft B738/M-SDE2E3FGHIRWXY/LB1

Departure

Time 2026-04-17 22:39
Airport Il Caravaggio International Airport (LIME)

Arrival

Time 2026-04-17 23:53
Airport Brno-Tuřany Airport (LKTB)
Time Latitude Longitude Altitude Speed Heading
2026-04-17 22:13 45.66604 9.70339 780 ft 0 kts 194°
2026-04-17 22:26 45.66619 9.70344 780 ft 4 kts 199°
2026-04-17 22:27 45.66643 9.70359 780 ft 4 kts 211°
2026-04-17 22:27 45.66663 9.70383 779 ft 4 kts 239°
2026-04-17 22:27 45.66667 9.70410 779 ft 1 kts 287°
2026-04-17 22:27 45.66666 9.70416 779 ft 0 kts 287°
2026-04-17 22:33 45.66669 9.70402 779 ft 6 kts 287°
2026-04-17 22:33 45.66689 9.70303 780 ft 12 kts 285°
2026-04-17 22:33 45.66710 9.70188 781 ft 12 kts 284°
2026-04-17 22:33 45.66730 9.70077 782 ft 12 kts 284°
2026-04-17 22:34 45.66750 9.69967 783 ft 11 kts 284°
2026-04-17 22:34 45.66769 9.69861 784 ft 11 kts 284°
2026-04-17 22:34 45.66788 9.69757 784 ft 11 kts 284°
2026-04-17 22:34 45.66806 9.69656 785 ft 10 kts 284°
2026-04-17 22:35 45.66823 9.69559 786 ft 10 kts 285°
2026-04-17 22:35 45.66843 9.69466 786 ft 10 kts 287°
2026-04-17 22:35 45.66864 9.69364 787 ft 12 kts 286°
2026-04-17 22:35 45.66886 9.69252 788 ft 12 kts 283°
2026-04-17 22:36 45.66902 9.69141 789 ft 11 kts 280°
2026-04-17 22:36 45.66911 9.69032 790 ft 11 kts 275°
2026-04-17 22:36 45.66921 9.68927 791 ft 11 kts 287°
2026-04-17 22:36 45.66978 9.68882 791 ft 10 kts
2026-04-17 22:37 45.67044 9.68914 791 ft 10 kts 42°
2026-04-17 22:37 45.67047 9.69010 790 ft 10 kts 90°
2026-04-17 22:37 45.67063 9.69107 789 ft 10 kts 72°
2026-04-17 22:37 45.67065 9.69188 788 ft 0 kts 103°
2026-04-17 22:38 45.67061 9.69214 787 ft 20 kts 104°
2026-04-17 22:38 45.66955 9.69783 785 ft 97 kts 104°
2026-04-17 22:38 45.66725 9.71030 773 ft 160 kts 104°
2026-04-17 22:38 45.66387 9.72741 1177 ft 182 kts 105°
2026-04-17 22:39 45.66009 9.74400 2308 ft 166 kts 114°
2026-04-17 22:39 45.65407 9.75787 3170 ft 169 kts 132°
2026-04-17 22:39 45.63338 9.77546 4495 ft 197 kts 165°
2026-04-17 22:40 45.61874 9.77760 4747 ft 226 kts 184°
2026-04-17 22:40 45.60319 9.77155 5256 ft 238 kts 207°
2026-04-17 22:40 45.59024 9.75650 5999 ft 243 kts 231°
2026-04-17 22:40 45.58071 9.73691 6905 ft 243 kts 237°
2026-04-17 22:41 45.57126 9.71666 7711 ft 247 kts 235°
2026-04-17 22:41 45.56133 9.69638 8535 ft 250 kts 234°
2026-04-17 22:41 45.55108 9.67612 9391 ft 253 kts 234°
2026-04-17 22:41 45.53856 9.65854 10124 ft 257 kts 206°
2026-04-17 22:42 45.52148 9.65103 10871 ft 259 kts 189°
2026-04-17 22:42 45.50333 9.64748 11592 ft 264 kts 186°
2026-04-17 22:42 45.48515 9.64444 12337 ft 268 kts 187°
2026-04-17 22:42 45.46639 9.64240 13057 ft 273 kts 174°
2026-04-17 22:43 45.44833 9.65076 13757 ft 277 kts 146°
2026-04-17 22:43 45.43494 9.67028 14421 ft 278 kts 117°
2026-04-17 22:43 45.42948 9.69611 15050 ft 278 kts 89°
2026-04-17 22:43 45.43313 9.72294 15687 ft 278 kts 63°
2026-04-17 22:44 45.44516 9.74404 16314 ft 276 kts 30°
2026-04-17 22:44 45.46326 9.75191 16969 ft 274 kts 358°
2026-04-17 22:44 45.48231 9.75010 17676 ft 275 kts 354°
2026-04-17 22:44 45.50139 9.74876 18365 ft 279 kts 358°
2026-04-17 22:45 45.52095 9.74905 18969 ft 283 kts
2026-04-17 22:45 45.54072 9.75086 19596 ft 285 kts
2026-04-17 22:45 45.56067 9.75372 20210 ft 288 kts
2026-04-17 22:45 45.58067 9.75708 20815 ft 291 kts
2026-04-17 22:46 45.60045 9.76055 21407 ft 293 kts
2026-04-17 22:46 45.62069 9.76674 21983 ft 300 kts 22°
2026-04-17 22:46 45.63783 9.78422 22541 ft 309 kts 46°
2026-04-17 22:46 45.64880 9.81150 22764 ft 331 kts 72°
2026-04-17 22:47 45.65134 9.84520 22942 ft 351 kts 87°
2026-04-17 22:47 45.65118 9.88097 23064 ft 369 kts 89°
2026-04-17 22:47 45.65056 9.91823 23174 ft 385 kts 89°
2026-04-17 22:47 45.64996 9.95741 23311 ft 401 kts 89°
2026-04-17 22:48 45.64957 9.99810 23451 ft 416 kts 89°
2026-04-17 22:48 45.64935 10.03986 23800 ft 423 kts 88°
2026-04-17 22:48 45.64934 10.08212 24262 ft 424 kts 84°
2026-04-17 22:48 45.65508 10.12323 24790 ft 420 kts 67°
2026-04-17 22:49 45.66862 10.15925 25292 ft 415 kts 52°
2026-04-17 22:49 45.68554 10.19285 25747 ft 417 kts 51°
2026-04-17 22:49 45.70292 10.22635 26182 ft 420 kts 50°
2026-04-17 22:49 45.72039 10.26015 26626 ft 422 kts 51°
2026-04-17 22:50 45.73782 10.29438 27085 ft 424 kts 51°
2026-04-17 22:50 45.75490 10.32835 27544 ft 426 kts 51°
2026-04-17 22:50 45.77220 10.36301 27983 ft 428 kts 51°
2026-04-17 22:50 45.78957 10.39790 28406 ft 430 kts 52°
2026-04-17 22:51 45.80705 10.43305 28807 ft 432 kts 52°
2026-04-17 22:51 45.82456 10.46833 29219 ft 435 kts 51°
2026-04-17 22:51 45.84218 10.50390 29557 ft 437 kts 52°
2026-04-17 22:51 45.85979 10.53948 29951 ft 439 kts 52°
2026-04-17 22:52 45.87724 10.57480 30310 ft 440 kts 51°
2026-04-17 22:52 45.89506 10.61090 30597 ft 442 kts 51°
2026-04-17 22:52 45.91285 10.64698 30910 ft 444 kts 51°
2026-04-17 22:52 45.93075 10.68333 31197 ft 445 kts 51°
2026-04-17 22:53 45.94866 10.71979 31514 ft 446 kts 51°
2026-04-17 22:53 45.96648 10.75625 31981 ft 443 kts 51°
2026-04-17 22:53 45.98418 10.79252 32244 ft 446 kts 51°
2026-04-17 22:53 46.00210 10.82926 32233 ft 449 kts 51°
2026-04-17 22:54 46.03764 10.90231 32250 ft 444 kts 51°
2026-04-17 22:54 46.07292 10.97500 32279 ft 442 kts 51°
2026-04-17 22:55 46.10818 11.04776 32281 ft 442 kts 51°
2026-04-17 22:55 46.14320 11.12009 32278 ft 442 kts 51°
2026-04-17 22:56 46.17674 11.18931 32283 ft 442 kts 51°
2026-04-17 22:56 46.21172 11.26174 32278 ft 443 kts 51°
2026-04-17 22:57 46.24696 11.33490 32292 ft 443 kts 51°
2026-04-17 22:57 46.27891 11.41169 32265 ft 447 kts 58°
2026-04-17 22:58 46.30762 11.49140 32247 ft 447 kts 58°
2026-04-17 22:58 46.33650 11.57051 32217 ft 434 kts 58°
2026-04-17 22:59 46.35039 11.60836 32189 ft 416 kts 57°
2026-04-17 22:59 46.36383 11.64484 32203 ft 410 kts 57°
2026-04-17 22:59 46.39041 11.71707 32190 ft 407 kts 57°
2026-04-17 23:00 46.41675 11.78937 32205 ft 405 kts 57°
2026-04-17 23:00 46.44304 11.86188 32205 ft 405 kts 57°
2026-04-17 23:01 46.46489 11.92232 32189 ft 406 kts 57°
2026-04-17 23:01 46.49104 11.99479 32207 ft 405 kts 57°
2026-04-17 23:02 46.51709 12.06715 32230 ft 407 kts 57°
2026-04-17 23:02 46.54336 12.14030 32240 ft 409 kts 57°
2026-04-17 23:03 46.56972 12.21395 32238 ft 410 kts 57°
2026-04-17 23:03 46.59592 12.28736 32263 ft 410 kts 57°
2026-04-17 23:04 46.62205 12.36077 32274 ft 408 kts 57°
2026-04-17 23:04 46.64819 12.43440 32243 ft 409 kts 57°
2026-04-17 23:05 46.67415 12.50771 32230 ft 409 kts 57°
2026-04-17 23:05 46.70025 12.58158 32222 ft 410 kts 57°
2026-04-17 23:06 46.73169 12.64985 32209 ft 403 kts 47°
2026-04-17 23:06 46.76569 12.71438 32190 ft 403 kts 47°
2026-04-17 23:07 46.79995 12.77955 32174 ft 404 kts 47°
2026-04-17 23:07 46.83401 12.84511 32182 ft 404 kts 47°
2026-04-17 23:08 46.86761 12.91023 32174 ft 403 kts 47°
2026-04-17 23:08 46.90124 12.97569 32189 ft 400 kts 47°
2026-04-17 23:09 46.93467 13.04091 32200 ft 400 kts 47°
2026-04-17 23:09 46.96792 13.10590 32193 ft 401 kts 47°
2026-04-17 23:10 47.00149 13.17166 32192 ft 403 kts 47°
2026-04-17 23:10 47.03500 13.23744 32197 ft 405 kts 48°
2026-04-17 23:11 47.06878 13.30397 32215 ft 405 kts 48°
2026-04-17 23:11 47.10234 13.37024 32222 ft 406 kts 48°
2026-04-17 23:12 47.13616 13.43716 32225 ft 408 kts 48°
2026-04-17 23:12 47.16997 13.50422 32219 ft 407 kts 48°
2026-04-17 23:13 47.20349 13.57089 32239 ft 407 kts 48°
2026-04-17 23:13 47.23713 13.63793 32239 ft 407 kts 48°
2026-04-17 23:14 47.27076 13.70510 32225 ft 407 kts 48°
2026-04-17 23:14 47.30420 13.77208 32217 ft 407 kts 49°
2026-04-17 23:15 47.33779 13.83951 32234 ft 407 kts 48°
2026-04-17 23:15 47.37111 13.90658 32236 ft 407 kts 49°
2026-04-17 23:16 47.40460 13.97415 32239 ft 407 kts 49°
2026-04-17 23:16 47.43785 14.04137 32224 ft 406 kts 49°
2026-04-17 23:17 47.47115 14.10890 32228 ft 406 kts 49°
2026-04-17 23:17 47.50440 14.17648 32233 ft 406 kts 49°
2026-04-17 23:18 47.53739 14.24368 32237 ft 406 kts 49°
2026-04-17 23:18 47.57075 14.31181 32221 ft 406 kts 49°
2026-04-17 23:19 47.60369 14.37925 32234 ft 405 kts 49°
2026-04-17 23:19 47.63686 14.44736 32227 ft 406 kts 49°
2026-04-17 23:20 47.66977 14.51507 32225 ft 407 kts 49°
2026-04-17 23:20 47.70297 14.58354 32241 ft 407 kts 49°
2026-04-17 23:21 47.73608 14.65200 32231 ft 407 kts 49°
2026-04-17 23:21 47.76895 14.72015 32228 ft 408 kts 49°
2026-04-17 23:22 47.80208 14.78899 32236 ft 408 kts 49°
2026-04-17 23:22 47.83517 14.85794 32221 ft 408 kts 49°
2026-04-17 23:23 47.86810 14.92675 32218 ft 407 kts 49°
2026-04-17 23:23 47.90091 14.99546 32226 ft 407 kts 49°
2026-04-17 23:24 47.93354 15.06395 32233 ft 405 kts 50°
2026-04-17 23:24 47.96561 15.13154 32223 ft 394 kts 49°
2026-04-17 23:25 47.99733 15.19843 32178 ft 395 kts 49°
2026-04-17 23:25 48.01322 15.23197 31883 ft 393 kts 49°
2026-04-17 23:25 48.02888 15.26515 31551 ft 389 kts 49°
2026-04-17 23:26 48.04442 15.29809 31196 ft 386 kts 49°
2026-04-17 23:26 48.05965 15.33040 30852 ft 383 kts 49°
2026-04-17 23:26 48.07497 15.36295 30505 ft 381 kts 49°
2026-04-17 23:26 48.09016 15.39524 30135 ft 379 kts 49°
2026-04-17 23:27 48.10530 15.42747 29728 ft 376 kts 49°
2026-04-17 23:27 48.12029 15.45942 29352 ft 373 kts 49°
2026-04-17 23:27 48.13511 15.49106 28983 ft 369 kts 49°
2026-04-17 23:27 48.14981 15.52247 28610 ft 366 kts 49°
2026-04-17 23:28 48.16438 15.55362 28257 ft 363 kts 49°
2026-04-17 23:28 48.17884 15.58459 27886 ft 361 kts 49°
2026-04-17 23:28 48.19301 15.61496 27530 ft 358 kts 49°
2026-04-17 23:28 48.20742 15.64588 27177 ft 355 kts 49°
2026-04-17 23:29 48.22135 15.67580 26830 ft 353 kts 50°
2026-04-17 23:29 48.23535 15.70593 26487 ft 351 kts 50°
2026-04-17 23:29 48.24928 15.73592 26140 ft 349 kts 50°
2026-04-17 23:29 48.26314 15.76579 25796 ft 347 kts 50°
2026-04-17 23:30 48.27690 15.79547 25453 ft 345 kts 50°
2026-04-17 23:30 48.29056 15.82498 25118 ft 343 kts 50°
2026-04-17 23:30 48.30415 15.85437 24782 ft 342 kts 50°
2026-04-17 23:30 48.31767 15.88362 24440 ft 340 kts 50°
2026-04-17 23:31 48.33119 15.91291 24099 ft 339 kts 50°
2026-04-17 23:31 48.34459 15.94199 23759 ft 338 kts 50°
2026-04-17 23:31 48.35779 15.97066 23367 ft 337 kts 50°
2026-04-17 23:31 48.37108 15.99956 23003 ft 335 kts 50°
2026-04-17 23:32 48.38433 16.02839 22646 ft 332 kts 50°
2026-04-17 23:32 48.39741 16.05690 22312 ft 330 kts 50°
2026-04-17 23:32 48.41039 16.08524 21980 ft 327 kts 50°
2026-04-17 23:32 48.42329 16.11339 21645 ft 325 kts 50°
2026-04-17 23:33 48.43607 16.14135 21313 ft 323 kts 50°
2026-04-17 23:33 48.44880 16.16919 20996 ft 321 kts 50°
2026-04-17 23:33 48.46143 16.19685 20675 ft 319 kts 50°
2026-04-17 23:33 48.47398 16.22437 20355 ft 317 kts 50°
2026-04-17 23:34 48.48626 16.25132 20041 ft 315 kts 50°
2026-04-17 23:34 48.49869 16.27861 19724 ft 314 kts 50°
2026-04-17 23:34 48.51104 16.30577 19408 ft 313 kts 50°
2026-04-17 23:34 48.52333 16.33282 19090 ft 311 kts 50°
2026-04-17 23:35 48.53554 16.35973 18786 ft 310 kts 50°
2026-04-17 23:35 48.54773 16.38660 18459 ft 309 kts 51°
2026-04-17 23:35 48.55972 16.41308 18102 ft 307 kts 51°
2026-04-17 23:35 48.57179 16.43976 17766 ft 305 kts 51°
2026-04-17 23:36 48.58373 16.46617 17439 ft 303 kts 51°
2026-04-17 23:36 48.59556 16.49237 17134 ft 301 kts 51°
2026-04-17 23:36 48.60730 16.51839 16817 ft 299 kts 51°
2026-04-17 23:36 48.61885 16.54403 16514 ft 297 kts 51°
2026-04-17 23:37 48.63046 16.56981 16210 ft 295 kts 51°
2026-04-17 23:37 48.64199 16.59545 15905 ft 293 kts 52°
2026-04-17 23:37 48.65347 16.62098 15604 ft 292 kts 52°
2026-04-17 23:37 48.66472 16.64603 15312 ft 290 kts 52°
2026-04-17 23:38 48.67606 16.67130 15013 ft 289 kts 52°
2026-04-17 23:38 48.68739 16.69658 14711 ft 288 kts 52°
2026-04-17 23:38 48.69858 16.72156 14414 ft 287 kts 52°
2026-04-17 23:38 48.70975 16.74653 14116 ft 286 kts 52°
2026-04-17 23:39 48.72129 16.77057 13772 ft 282 kts 42°
2026-04-17 23:39 48.73167 16.78257 13549 ft 277 kts 25°
2026-04-17 23:39 48.75580 16.79235 13122 ft 271 kts
2026-04-17 23:39 48.77456 16.79402 12808 ft 269 kts
2026-04-17 23:40 48.78721 16.79500 12594 ft 268 kts
2026-04-17 23:40 48.80559 16.79649 12304 ft 267 kts
2026-04-17 23:40 48.82408 16.79811 12010 ft 265 kts
2026-04-17 23:40 48.84251 16.79978 11722 ft 264 kts
2026-04-17 23:41 48.86082 16.80147 11434 ft 263 kts
2026-04-17 23:41 48.87907 16.80316 11138 ft 262 kts
2026-04-17 23:41 48.89725 16.80485 10841 ft 260 kts
2026-04-17 23:41 48.91514 16.80652 10575 ft 259 kts
2026-04-17 23:42 48.93312 16.80820 10335 ft 256 kts
2026-04-17 23:42 48.95065 16.80984 10223 ft 249 kts
2026-04-17 23:42 48.96801 16.81146 9938 ft 248 kts
2026-04-17 23:42 48.98523 16.81307 9655 ft 247 kts
2026-04-17 23:43 49.00238 16.81467 9373 ft 246 kts
2026-04-17 23:43 49.01915 16.81631 9105 ft 244 kts
2026-04-17 23:43 49.03515 16.82478 8818 ft 247 kts 32°
2026-04-17 23:43 49.04675 16.84413 8563 ft 251 kts 59°
2026-04-17 23:44 49.05156 16.86982 8302 ft 256 kts 84°
2026-04-17 23:44 49.05038 16.89696 8053 ft 259 kts 94°
2026-04-17 23:44 49.04772 16.92452 7790 ft 266 kts 95°
2026-04-17 23:44 49.04497 16.95252 7515 ft 272 kts 95°
2026-04-17 23:45 49.03960 17.00956 6942 ft 270 kts 95°
2026-04-17 23:45 49.03702 17.03793 6661 ft 269 kts 94°
2026-04-17 23:45 49.03466 17.06620 6371 ft 267 kts 89°
2026-04-17 23:46 49.03808 17.09327 6054 ft 258 kts 60°
2026-04-17 23:46 49.04898 17.11365 5788 ft 249 kts 34°
2026-04-17 23:46 49.06419 17.12560 5504 ft 245 kts 15°
2026-04-17 23:46 49.08095 17.13008 5179 ft 245 kts 359°
2026-04-17 23:47 49.09717 17.12344 5002 ft 241 kts 332°
2026-04-17 23:47 49.10966 17.10680 4893 ft 237 kts 309°
2026-04-17 23:47 49.11683 17.08452 4805 ft 233 kts 287°
2026-04-17 23:47 49.11960 17.06076 4720 ft 227 kts 282°
2026-04-17 23:48 49.12210 17.03716 4515 ft 223 kts 282°
2026-04-17 23:48 49.12432 17.01404 4318 ft 217 kts 281°
2026-04-17 23:48 49.12624 16.99127 4056 ft 213 kts 281°
2026-04-17 23:48 49.12805 16.96932 3821 ft 208 kts 280°
2026-04-17 23:49 49.12984 16.94774 3626 ft 201 kts 281°
2026-04-17 23:49 49.13158 16.92684 3415 ft 196 kts 281°
2026-04-17 23:49 49.13330 16.90636 3192 ft 193 kts 280°
2026-04-17 23:49 49.13501 16.88590 3033 ft 195 kts 280°
2026-04-17 23:50 49.13673 16.86543 2781 ft 193 kts 280°
2026-04-17 23:50 49.13842 16.84533 2555 ft 188 kts 280°
2026-04-17 23:50 49.14004 16.82603 2270 ft 177 kts 280°
2026-04-17 23:50 49.14154 16.80828 2044 ft 162 kts 280°
2026-04-17 23:51 49.14294 16.79177 1849 ft 154 kts 280°
2026-04-17 23:51 49.14431 16.77564 1649 ft 153 kts 279°
2026-04-17 23:51 49.14569 16.75967 1444 ft 150 kts 279°
2026-04-17 23:51 49.14695 16.74402 1246 ft 147 kts 279°
2026-04-17 23:52 49.14822 16.72861 1035 ft 145 kts 279°
2026-04-17 23:52 49.14960 16.71341 844 ft 143 kts 279°
2026-04-17 23:52 49.15083 16.69960 777 ft 127 kts 278°
2026-04-17 23:52 49.15173 16.68939 777 ft 66 kts 277°
2026-04-17 23:53 49.15204 16.68587 775 ft 13 kts 277°
2026-04-17 23:53 49.15261 16.68498 778 ft 13 kts 358°
2026-04-17 23:53 49.15313 16.68506 784 ft 7 kts
2026-04-17 23:53 49.15358 16.68514 786 ft 7 kts
2026-04-17 23:54 49.15391 16.68554 786 ft 6 kts 69°
2026-04-17 23:54 49.15392 16.68621 786 ft 6 kts 94°
2026-04-17 23:54 49.15387 16.68687 786 ft 6 kts 100°
2026-04-17 23:54 49.15380 16.68751 786 ft 6 kts 98°
2026-04-17 23:55 49.15374 16.68814 786 ft 6 kts 98°
2026-04-17 23:55 49.15369 16.68875 786 ft 6 kts 98°
2026-04-17 23:55 49.15363 16.68936 786 ft 6 kts 98°
2026-04-17 23:55 49.15358 16.68994 786 ft 0 kts 97°
2026-04-17 23:56 49.15356 16.69019 786 ft 4 kts 97°
2026-04-17 23:56 49.15376 16.69047 786 ft 4 kts 14°
2026-04-17 23:56 49.15392 16.69052 786 ft 0 kts 11°